Погода в Ламби

Греция     36°53′25″N   27°17′21″E
темп.,
°C
ветер,
м/с
пор.,
м/с
влажн.,
%
обл.,
%
осадки,
мм/ч
давл.,
гПа
погр.,
м
12 мая, ср
ср1200:00+18сз56800 0.0 1009162
03:00+18сз44760 0.0 1008134
06:00+17ссз35690 0.0 1009205
09:00+19сз44570 0.0 1010287
12:00+20зсз54510 0.0 1010383
15:00+20зсз655456 0.0 1010350
18:00+19з346299 0.0 1010289
21:00+18з2272100 0.0 1010129
13 мая, чт
чт1300:00+17ю22670 0.0 101082
03:00+17юв33690 0.0 1009114
06:00+18ююв45741 0.0 1010172
09:00+20ююв55705 0.0 1011288
12:00+21ю56625 0.0 1011377
15:00+22юз566096 0.0 1011468
18:00+22ююз45600 0.0 1011307
21:00+19ю33670 0.0 101233
14 мая, пт
пт1400:00+18ююв44725 0.0 101282
03:00+18ююв35777 0.0 1012156
06:00+18ю34805 0.0 1013241
09:00+20юз35710 0.0 1014472
12:00+21ююз45640 0.0 1015461
15:00+22ююз45630 0.0 1015440
18:00+21юз44670 0.0 1015310
21:00+19ююз11810 0.0 101520
15 мая, сб
сб1500:00+18ююз01820 0.0 101518
03:00+17сз01794 0.0 101433
06:00+17ссз11775 0.0 101441
09:00+20з11655 0.0 1014148
12:00+21з33610 0.0 1013331
15:00+22з44621 0.0 1012287
18:00+21зюз33636 0.0 1011170
21:00+19юз227787 0.0 101029
16 мая, вс
вс1600:00+19ю227437 0.0 100918
03:00+18юз227797 0.0 100846
06:00+19ююв227738 0.1 100635
09:00+19юз45791 0.2 1006558
12:00+20з55720 0.1 1006660
15:00+20сз99680 0.1 1006729
18:00+19зсз79740 0.1 1005740
21:00+18сз912760 0.1 1006578